Weather History for Plant City, FL

Change the Weather History Date:

Thursday, November 15, 2012

  Actual Average Record
Temperature  
Mean Temperature 64 °F -  
Max Temperature 68 °F 78 °F 89 °F (1957)
Min Temperature 60 °F 53 °F 33 °F (1969)
Degree Days  
Heating Degree Days 1    
Growing Degree Days 14 (Base 50)    
Moisture  
Dew Point 62 °F    
Average Humidity 84    
Maximum Humidity 100    
Minimum Humidity 78    
Precipitation  
Precipitation 0.00 in - - ()
Sea Level Pressure  
Sea Level Pressure 30.14 in    
Wind  
Wind Speed 4 mph (NNE)    
Max Wind Speed 7 mph    
Max Gust Speed -    
Visibility 8 miles    
Events      
Averages and records for this station are not official NWS values.
T = Trace of Precipitation, MM = Missing Value Source: NWS Daily Summary

Daily Weather History Graph

Daily Weather History Graph

Search for Another Location

Airport:

Trip Planner

Search our weather history database for the weather conditions in past years. The results will help you decide how hot, cold, wet, or windy it might be!

Date:

Astronomy

Nov. 15, 2012 Rise Set
Actual Time 6:50 AM EST 5:35 PM EST
Civil Twilight 6:25 AM EST 6:00 PM EST
Nautical Twilight 5:57 AM EST 6:28 PM EST
Astronomical Twilight 5:29 AM EST 6:56 PM EST
Moon 8:39 AM EST (11/15) 7:31 PM EST (11/15)
Length of Visible Light 11h 34m
Length of Day
10h 45m
Waxing Crescent, 5% of the Moon is Illuminated
Nov 15
Waxing Crescent
Nov 20
First Quarter
Nov 28
Full
Dec 6
Last Quarter
Dec 13
New

Hourly Weather History & Observations

Time (EST) Temp. Dew Point Humidity Pressure Visibility Wind Dir Wind Speed Gust Speed Precip Events Conditions
12:15 AM 68.0 °F - N/A% 30.15 in 10.0 mi NE 6.9 mph - N/A   Overcast
12:35 AM 68.0 °F - N/A% 30.15 in 10.0 mi NNE 3.5 mph - N/A   Overcast
12:55 AM 68.0 °F - N/A% 30.14 in 10.0 mi NNE 3.5 mph - N/A   Overcast
1:15 AM 68.0 °F - N/A% 30.13 in 10.0 mi NNE 4.6 mph - N/A   Overcast
1:35 AM 68.0 °F - N/A% 30.13 in 10.0 mi NE 4.6 mph - N/A   Overcast
1:55 AM 66.2 °F - N/A% 30.12 in 10.0 mi NNE 4.6 mph - N/A   Overcast
2:15 AM 66.2 °F - N/A% 30.12 in 10.0 mi NE 3.5 mph - N/A   Overcast
2:35 AM 66.2 °F - N/A% 30.12 in 10.0 mi NE 3.5 mph - N/A   Overcast
2:55 AM 66.2 °F - N/A% 30.11 in 10.0 mi NE 3.5 mph - N/A   Overcast
3:15 AM 66.2 °F - N/A% 30.11 in 10.0 mi NE 3.5 mph - N/A   Overcast
3:35 AM 66.2 °F - N/A% 30.11 in 10.0 mi NNE 3.5 mph - N/A   Overcast
3:55 AM 66.2 °F - N/A% 30.11 in 7.0 mi NE 4.6 mph - N/A   Overcast
4:15 AM 66.2 °F - N/A% 30.10 in 7.0 mi NNE 3.5 mph - N/A   Overcast
4:35 AM 66.2 °F - N/A% 30.11 in 7.0 mi NNE 4.6 mph - N/A   Overcast
4:55 AM 66.2 °F - N/A% 30.11 in 7.0 mi NNE 3.5 mph - N/A   Overcast
5:15 AM 66.2 °F - N/A% 30.12 in 7.0 mi NNE 3.5 mph - N/A   Overcast
5:35 AM 66.2 °F - N/A% 30.12 in 4.0 mi North 3.5 mph - N/A   Haze
5:55 AM 66.2 °F - N/A% 30.12 in 5.0 mi Calm Calm - N/A   Haze
6:15 AM 66.2 °F - N/A% 30.13 in 5.0 mi North 4.6 mph - N/A   Haze
6:35 AM 66.2 °F - N/A% 30.13 in 5.0 mi North 4.6 mph - N/A   Haze
6:55 AM 66.2 °F - N/A% 30.14 in 3.0 mi Calm Calm - N/A   Overcast
7:15 AM 66.2 °F - N/A% 30.14 in 1.5 mi North 4.6 mph - N/A   Overcast
7:35 AM 66.2 °F - N/A% 30.15 in 1.8 mi North 5.8 mph - N/A   Overcast
7:55 AM 66.2 °F - N/A% 30.16 in 2.5 mi North 3.5 mph - N/A   Overcast
8:15 AM 66.2 °F - N/A% 30.16 in 4.0 mi NNW 5.8 mph - N/A   Haze
8:35 AM 66.2 °F - N/A% 30.16 in 5.0 mi North 4.6 mph - N/A   Haze
8:55 AM 66.2 °F - N/A% 30.17 in 4.0 mi NNW 4.6 mph - N/A   Haze
9:15 AM 66.2 °F - N/A% 30.17 in 7.0 mi North 3.5 mph - N/A   Overcast
9:35 AM 66.2 °F - N/A% 30.18 in 10.0 mi North 4.6 mph - N/A   Overcast
9:55 AM 66.2 °F - N/A% 30.19 in 10.0 mi North 3.5 mph - N/A   Overcast
10:15 AM 66.2 °F - N/A% 30.19 in 10.0 mi North 4.6 mph - N/A   Overcast
10:35 AM 66.2 °F - N/A% 30.18 in 10.0 mi North 4.6 mph - N/A   Overcast
10:55 AM 66.2 °F - N/A% 30.18 in 10.0 mi North 4.6 mph - N/A   Overcast
11:15 AM 66.2 °F - N/A% 30.18 in 10.0 mi NNW 4.6 mph - N/A   Overcast
11:35 AM 68.0 °F - N/A% 30.17 in 10.0 mi North 4.6 mph - N/A   Overcast
11:55 AM 66.2 °F - N/A% 30.17 in 10.0 mi North 3.5 mph - N/A   Overcast
12:15 PM 66.2 °F - N/A% 30.16 in 10.0 mi North 3.5 mph - N/A   Overcast
12:35 PM 68.0 °F - N/A% 30.15 in 10.0 mi NNE 3.5 mph - N/A   Overcast
12:55 PM 68.0 °F - N/A% 30.14 in 10.0 mi North 3.5 mph - N/A   Overcast
1:15 PM 68.0 °F 62.6 °F 83% 30.13 in 10.0 mi North 4.6 mph - N/A   Overcast
1:35 PM 68.0 °F 62.6 °F 83% 30.13 in 10.0 mi North 3.5 mph - N/A   Overcast
1:55 PM 68.0 °F 62.6 °F 83% 30.12 in 10.0 mi Calm Calm - N/A   Overcast
2:15 PM 68.0 °F 62.6 °F 83% 30.12 in 10.0 mi NNE 4.6 mph - N/A   Overcast
2:35 PM 68.0 °F 62.6 °F 83% 30.12 in 10.0 mi Calm Calm - N/A   Overcast
2:55 PM 68.0 °F 62.6 °F 83% 30.12 in 10.0 mi Calm Calm - N/A   Overcast
3:15 PM 68.0 °F 62.6 °F 83% 30.12 in 10.0 mi Calm Calm - N/A   Overcast
3:35 PM 68.0 °F 62.6 °F 83% 30.12 in 4.0 mi NNE 3.5 mph - N/A   Haze
3:55 PM 68.0 °F 62.6 °F 83% 30.12 in 7.0 mi Calm Calm - N/A   Overcast
4:15 PM 68.0 °F 62.6 °F 83% 30.12 in 5.0 mi NE 4.6 mph - N/A   Haze
4:35 PM 68.0 °F 60.8 °F 78% 30.12 in 5.0 mi North 3.5 mph - N/A   Haze
4:55 PM 68.0 °F 62.6 °F 83% 30.12 in 7.0 mi NNE 5.8 mph - N/A   Overcast
5:15 PM 66.2 °F 60.8 °F 83% 30.13 in 10.0 mi NE 5.8 mph - N/A   Overcast
5:35 PM 66.2 °F 60.8 °F 83% 30.13 in 10.0 mi NNE 5.8 mph - N/A   Overcast
5:55 PM 66.2 °F 60.8 °F 83% 30.14 in 10.0 mi NNE 4.6 mph - N/A   Overcast
6:15 PM 66.2 °F 60.8 °F 83% 30.14 in 10.0 mi NNE 3.5 mph - N/A   Overcast
6:35 PM 64.4 °F 60.8 °F 88% 30.14 in 7.0 mi NE 5.8 mph - N/A   Overcast
6:55 PM 64.4 °F 64.4 °F 100% 30.14 in 7.0 mi NE 6.9 mph - N/A   Overcast
7:15 PM 64.4 °F - N/A% 30.15 in 7.0 mi NNE 4.6 mph - N/A   Overcast
7:35 PM 64.4 °F - N/A% 30.15 in 10.0 mi NE 4.6 mph - N/A   Overcast
7:55 PM 64.4 °F - N/A% 30.15 in 3.0 mi NNE 3.5 mph - N/A   Overcast
8:15 PM 62.6 °F - N/A% 30.16 in 2.0 mi NNE 5.8 mph - N/A   Overcast
8:35 PM 62.6 °F - N/A% 30.16 in 2.5 mi NNE 5.8 mph - N/A   Overcast
8:55 PM 62.6 °F - N/A% 30.16 in 2.0 mi NNE 4.6 mph - N/A   Overcast
9:15 PM 62.6 °F - N/A% 30.17 in 2.0 mi North 5.8 mph - N/A   Overcast
9:35 PM 62.6 °F - N/A% 30.17 in 2.5 mi NNE 6.9 mph - N/A   Overcast
9:55 PM 60.8 °F - N/A% 30.17 in 3.0 mi NNE 6.9 mph - N/A   Overcast
10:15 PM 60.8 °F - N/A% 30.18 in 7.0 mi NNE 5.8 mph - N/A   Overcast
10:35 PM 60.8 °F - N/A% 30.18 in 7.0 mi NNE 4.6 mph - N/A   Overcast
10:55 PM 60.8 °F - N/A% 30.18 in 7.0 mi NNE 4.6 mph - N/A   Overcast
11:15 PM 60.8 °F - N/A% 30.17 in 10.0 mi NNE 4.6 mph - N/A   Overcast
11:35 PM 60.8 °F - N/A% 30.17 in 10.0 mi NNE 3.5 mph - N/A   Overcast
11:55 PM 60.8 °F - N/A% 30.17 in 7.0 mi North 5.8 mph - N/A   Overcast